Temp
4 4 5 7 7 8 9 9 9 9 9 9 9 9 7 5 6 6 5 4 4 3 2 3 5 4 4 4 4 3 3 2 2 2 1 2 1 1 2 2 2 2 1 1
5 5 6 7 8 8 8 8 9 10 9 9 9 9 8 7 7 8 7 5 4 4 3 3 3 4 4 3 4 4 3 3 3 3 2 2 2 2 2 2 2 3 2 2
5 7 7 7 8 7 8 8 8 8 8 8 9 9 9 8 8 8 7 6 5 4 3 3 5 3 3 3 3 3 4 4 4 3 3 3 3 3 3 3 3 3 2 2
6 7 8 8 7 8 8 9 8 9 9 9 8 8 8 8 9 8 7 7 6 5 4 4 5 5 4 4 4 4 4 4 4 4 4 4 4 3 3 3 3 3 3 2
7 7 8 7 8 8 8 8 8 8 8 9 9 7 9 8 9 8 8 7 7 7 5 5 7 6 6 5 5 5 5 5 4 4 4 4 4 4 3 3 3 3 3 2
7 7 7 8 7 8 8 8 8 8 8 8 9 9 8 9 9 10 8 8 7 7 5 5 6 6 6 6 6 5 5 5 5 5 4 4 5 4 4 3 3 3 3 1
7 7 8 7 7 8 7 7 8 7 8 8 9 9 10 9 9 9 9 8 8 7 6 6 5 6 6 6 6 6 6 6 5 5 5 4 4 4 3 3 3 3 2 1
6 7 7 7 7 8 7 7 8 6 3 6 8 9 10 9 9 9 8 9 8 8 7 6 6 5 6 7 6 6 6 6 5 5 5 4 4 4 3 3 3 3 2 2
6 7 7 7 7 7 8 7 8 5 4 5 6 9 10 9 9 9 8 8 8 8 7 7 7 6 5 6 7 6 6 6 5 5 5 4 4 3 2 2 3 2 2 2
6 7 8 8 7 7 7 8 8 8 4 7 10 10 10 9 9 8 8 8 8 7 7 7 7 6 6 5 6 6 6 6 6 5 5 5 4 3 3 3 3 2 2 2
5 7 8 8 7 7 7 7 7 8 9 8 7 8 7 8 9 8 8 8 7 7 7 7 7 6 6 5 5 5 5 6 6 5 5 5 4 4 3 3 3 3 2 2
6 7 8 8 7 7 8 7 7 8 8 7 7 8 8 8 8 8 8 7 7 7 6 7 7 7 6 6 5 4 4 4 5 5 3 4 4 4 3 3 3 3 2 2
6 6 7 6 7 7 7 8 8 8 8 8 6 7 8 8 8 8 8 8 7 7 6 6 7 7 7 6 5 4 4 4 4 3 4 4 4 4 4 3 3 3 2 2
5 6 7 7 7 7 7 8 7 8 8 7 8 7 8 8 7 8 8 8 7 7 6 6 6 6 6 6 6 5 4 5 5 5 5 4 4 4 4 3 3 3 2 2
4 6 6 7 7 7 7 7 7 8 8 7 7 8 8 8 8 8 8 8 6 7 6 6 6 5 5 6 6 6 6 5 5 4 5 5 4 4 3 3 3 2 2 1
5 5 6 6 7 7 7 8 8 7 8 8 8 8 8 8 8 7 8 7 6 6 6 6 6 5 4 6 6 5 5 5 4 4 4 4 4 3 3 2 2 2 1 1
4 5 5 5 6 6 7 7 8 8 8 8 8 8 8 8 8 8 7 7 6 5 6 6 6 4 5 5 5 5 5 5 5 4 4 3 3 3 2 2 2 2 1 0
3 4 5 5 5 4 6 7 7 7 7 8 8 8 8 8 8 7 7 6 6 5 5 5 5 4 4 5 5 4 4 4 4 4 3 3 3 3 3 2 1 1 0 -1
3 4 4 5 4 5 6 6 7 7 7 7 7 7 8 7 7 7 7 6 6 6 5 5 5 4 4 4 4 4 4 3 3 3 3 3 3 2 1 0 0 -0 -1 -1
2 2 3 4 4 3 5 6 6 6 6 6 7 7 7 7 6 6 6 6 5 5 5 5 4 4 4 3 3 3 3 3 3 2 2 2 1 1 0 -0 -1 -1 -2 -2
-0 0 3 3 3 4 5 5 6 5 6 7 6 7 7 7 6 5 6 5 5 5 4 4 4 4 3 3 3 3 3 2 2 2 2 1 0 -0 -1 -1 -1 -2 -2 -3
-0 1 2 2 2 3 5 5 5 6 6 6 6 6 6 6 5 5 5 5 5 4 4 4 4 3 3 2 2 2 2 2 2 1 1 0 -0 -1 -1 -2 -2 -3 -4 -4
2 -0 2 3 3 3 4 5 5 5 5 5 5 6 5 5 5 5 5 4 4 4 4 3 3 3 2 2 2 2 2 1 1 0 -0 -1 -1 -2 -2 -3 -4 -4 -5 -6
2 2 0 1 3 3 4 4 5 5 5 5 5 5 5 5 5 4 4 4 4 4 3 3 3 2 2 2 2 1 1 1 -0 -0 -1 -1 -2 -3 -3 -4 -5 -6 -6 -7
3 2 2 2 0 1 2 3 3 4 4 4 4 5 4 4 4 4 4 4 3 3 3 3 2 2 1 1 1 1 0 -0 -1 -1 -2 -3 -4 -4 -4 -5 -6 -7 -8 -8
1 2 2 2 2 2 2 2 2 3 4 4 4 4 4 4 4 4 4 3 3 3 3 2 2 1 1 1 1 0 -0 -1 -1 -2 -3 -4 -5 -5 -6 -7 -8 -8 -9 -9
Height
3094 3097 3095 3096 3095 3095 3092 3091 3089 3087 3089 3089 3089 3088 3083 3083 3079 3089 3091 3090 3090 3093 3090 3089 3088 3094 3097 3096 3098 3102 3103 3107 3110 3113 3117 3120 3124 3128 3132 3134 3137 3139 3142 3144
3094 3088 3091 3092 3091 3091 3091 3089 3087 3086 3087 3088 3087 3086 3083 3083 3085 3091 3090 3090 3091 3091 3091 3090 3090 3092 3097 3097 3101 3104 3106 3110 3112 3115 3118 3122 3126 3129 3131 3133 3134 3136 3139 3140
3084 3084 3087 3088 3089 3089 3089 3087 3088 3088 3086 3086 3085 3084 3086 3086 3086 3089 3089 3090 3089 3091 3091 3089 3089 3091 3091 3095 3098 3102 3107 3110 3113 3115 3118 3121 3123 3125 3127 3129 3131 3133 3136 3137
3080 3083 3084 3084 3085 3087 3085 3085 3085 3086 3085 3083 3085 3083 3082 3082 3083 3084 3087 3089 3089 3091 3091 3089 3089 3091 3093 3096 3099 3101 3103 3107 3110 3113 3116 3119 3121 3123 3124 3126 3129 3131 3134 3135
3074 3078 3080 3081 3082 3084 3083 3082 3084 3084 3083 3082 3079 3083 3078 3078 3079 3081 3083 3085 3085 3087 3088 3088 3090 3092 3095 3096 3099 3102 3104 3107 3109 3112 3114 3115 3118 3120 3122 3124 3127 3127 3129 3132
3071 3074 3076 3077 3079 3080 3082 3082 3082 3082 3082 3079 3075 3077 3077 3076 3075 3077 3077 3080 3082 3084 3087 3089 3089 3091 3093 3095 3098 3101 3103 3106 3108 3109 3112 3113 3116 3118 3120 3121 3122 3124 3126 3128
3067 3067 3071 3074 3075 3077 3079 3080 3079 3079 3077 3074 3074 3073 3067 3071 3074 3076 3077 3076 3079 3082 3085 3087 3088 3088 3091 3093 3096 3098 3101 3103 3106 3107 3110 3112 3114 3115 3116 3117 3118 3121 3122 3123
3061 3063 3064 3068 3070 3072 3075 3076 3076 3079 3087 3079 3074 3069 3068 3070 3073 3073 3076 3078 3079 3080 3082 3085 3086 3086 3087 3090 3093 3095 3098 3101 3103 3104 3107 3109 3111 3110 3111 3112 3111 3112 3113 3115
3054 3056 3061 3064 3067 3069 3071 3070 3071 3076 3080 3082 3071 3066 3066 3068 3071 3072 3075 3076 3077 3079 3081 3080 3083 3085 3084 3086 3089 3092 3095 3097 3099 3101 3103 3104 3105 3105 3106 3106 3105 3106 3107 3108
3048 3052 3054 3058 3063 3065 3065 3068 3069 3070 3078 3068 3062 3062 3060 3065 3069 3071 3073 3074 3075 3075 3077 3078 3079 3080 3082 3083 3085 3088 3091 3092 3094 3095 3096 3097 3099 3099 3098 3097 3098 3100 3100 3100
3043 3048 3050 3053 3053 3057 3061 3062 3063 3064 3064 3063 3063 3063 3063 3066 3067 3070 3071 3071 3073 3073 3073 3074 3076 3079 3079 3081 3081 3082 3085 3087 3087 3088 3089 3091 3091 3091 3088 3089 3094 3095 3094 3095
3037 3043 3043 3045 3049 3054 3056 3057 3058 3059 3062 3063 3063 3066 3064 3065 3067 3068 3069 3070 3071 3072 3071 3071 3073 3075 3077 3078 3079 3078 3079 3081 3081 3081 3082 3081 3082 3082 3081 3086 3088 3087 3088 3088
3032 3037 3040 3045 3048 3049 3049 3052 3054 3056 3057 3057 3064 3063 3061 3063 3063 3065 3065 3066 3067 3068 3070 3069 3069 3070 3073 3074 3077 3077 3074 3072 3073 3073 3077 3077 3079 3080 3080 3081 3082 3082 3082 3081
3029 3032 3032 3035 3039 3043 3045 3046 3049 3051 3050 3053 3053 3056 3057 3059 3061 3062 3061 3062 3064 3064 3066 3068 3066 3066 3068 3069 3071 3070 3070 3070 3070 3068 3071 3072 3073 3075 3075 3075 3076 3076 3074 3073
3024 3024 3030 3032 3034 3037 3039 3041 3044 3043 3046 3048 3051 3052 3054 3055 3055 3058 3056 3058 3058 3063 3062 3063 3065 3061 3061 3062 3064 3066 3066 3066 3067 3068 3066 3065 3067 3068 3069 3069 3068 3068 3067 3066
3019 3023 3027 3028 3029 3030 3034 3034 3036 3039 3041 3042 3045 3046 3049 3051 3052 3054 3053 3052 3055 3057 3057 3059 3061 3057 3053 3056 3059 3061 3060 3060 3061 3061 3062 3061 3062 3064 3064 3063 3063 3061 3060 3058
3015 3019 3022 3024 3028 3028 3026 3029 3031 3034 3036 3038 3039 3042 3044 3045 3047 3048 3048 3048 3048 3049 3052 3054 3055 3049 3047 3050 3055 3054 3054 3054 3054 3055 3057 3058 3058 3057 3058 3056 3054 3053 3051 3050
3011 3016 3020 3022 3026 3018 3021 3024 3028 3029 3031 3033 3035 3037 3039 3040 3042 3041 3042 3043 3043 3043 3046 3046 3046 3046 3044 3044 3045 3046 3045 3047 3048 3049 3051 3051 3050 3050 3049 3048 3046 3045 3043 3042
3007 3011 3014 3015 3017 3019 3019 3021 3024 3026 3027 3029 3031 3032 3033 3035 3035 3034 3036 3038 3037 3037 3037 3037 3038 3038 3038 3037 3037 3039 3039 3041 3042 3043 3044 3044 3043 3042 3041 3040 3039 3037 3035 3033
3005 3007 3008 3010 3011 3011 3015 3019 3020 3022 3020 3024 3026 3026 3028 3027 3027 3030 3030 3031 3031 3030 3030 3030 3031 3031 3030 3031 3032 3033 3034 3036 3037 3037 3037 3036 3035 3034 3033 3032 3030 3028 3027 3025
3001 3002 3001 3004 3005 3007 3010 3013 3017 3016 3022 3019 3022 3021 3023 3022 3023 3024 3025 3025 3025 3024 3024 3024 3024 3024 3025 3027 3027 3028 3029 3030 3030 3030 3030 3029 3028 3027 3026 3024 3023 3020 3019 3017
2995 2998 2998 3001 3004 3001 3004 3007 3009 3010 3012 3016 3017 3017 3017 3017 3019 3020 3020 3019 3019 3018 3018 3018 3017 3018 3020 3021 3022 3023 3024 3024 3023 3023 3022 3021 3021 3020 3018 3017 3015 3012 3011 3010
2986 2989 2994 2995 2995 2996 2999 3003 3004 3006 3008 3011 3011 3012 3012 3012 3013 3014 3014 3014 3013 3012 3012 3011 3011 3012 3013 3014 3016 3016 3017 3017 3017 3016 3015 3014 3013 3011 3009 3008 3006 3005 3004 3002
2980 2983 2986 2987 2989 2992 2994 2996 2999 3000 3002 3003 3005 3006 3007 3005 3007 3007 3007 3007 3007 3005 3005 3004 3004 3006 3006 3007 3008 3009 3009 3009 3009 3008 3007 3006 3005 3003 3001 2999 2997 2997 2995 2993
2978 2980 2979 2980 2980 2983 2986 2989 2991 2994 2996 2997 2999 3000 3001 2998 3000 3000 2999 2999 2999 2999 2998 2997 2998 2998 2999 2999 3000 3000 3000 3000 2999 2999 2998 2997 2995 2994 2991 2991 2990 2989 2987 2985
2971 2973 2975 2977 2982 2982 2983 2984 2986 2988 2989 2990 2991 2993 2994 2992 2993 2993 2993 2993 2992 2991 2990 2990 2990 2991 2991 2991 2992 2991 2991 2989 2990 2989 2989 2988 2986 2984 2982 2983 2981 2980 2979 2977
Wind_Speed
19 18 22 19 22 21 21 16 15 5 5 6 11 13 10 12 15 15 10 10 8 5 15 8 3 10 12 14 16 15 18 20 23 24 24 24 24 24 24 24 21 20 20 20
20 28 21 19 18 14 15 15 15 8 1 8 10 11 5 7 8 11 10 11 16 11 17 13 10 7 11 15 17 14 13 16 17 17 17 17 18 19 18 18 19 18 18 19
28 24 18 21 16 13 14 15 11 17 10 16 15 16 13 6 10 10 11 12 16 17 17 18 10 12 11 14 15 15 16 15 16 15 17 17 18 19 20 20 20 18 18 20
28 23 15 19 15 15 15 13 12 14 13 14 3 15 15 17 14 13 13 15 18 18 18 17 11 11 12 12 13 13 12 13 15 15 17 19 19 19 16 16 17 19 16 19
31 25 24 19 20 16 17 6 11 11 15 19 16 8 16 13 20 19 18 19 13 14 19 18 9 9 12 14 15 15 15 16 18 18 18 18 18 16 16 16 18 21 17 21
27 22 24 24 18 17 13 13 12 14 16 15 19 10 13 10 13 16 19 16 15 13 17 20 16 12 14 16 17 19 20 20 19 17 18 17 15 18 20 20 22 23 22 22
28 29 23 21 22 20 15 14 12 9 11 8 10 12 14 6 16 6 7 17 14 17 21 21 24 21 19 19 18 18 18 18 19 18 17 20 19 19 22 23 26 24 26 22
28 27 31 23 22 21 19 19 15 6 3 4 7 7 7 5 8 7 7 12 9 18 21 24 25 28 25 22 22 22 22 21 22 22 21 19 23 24 22 25 27 25 29 26
34 33 26 25 22 22 20 21 22 9 12 7 8 15 7 11 5 5 6 8 10 17 17 22 22 29 31 28 26 25 25 25 26 24 25 27 24 24 29 26 28 29 29 32
30 24 28 27 23 22 24 15 18 12 4 6 7 9 4 10 7 7 7 7 6 11 13 15 23 24 30 33 30 28 28 28 27 30 30 30 27 27 27 30 32 30 32 35
41 27 25 27 30 26 21 19 17 21 15 1 4 2 9 2 6 9 8 6 7 5 6 9 17 20 27 28 28 30 30 31 32 33 33 32 32 30 35 29 30 31 32 34
43 22 23 26 26 24 24 22 19 15 10 11 7 9 5 1 8 12 9 10 8 7 5 9 7 9 22 25 25 31 31 35 36 37 36 37 32 32 28 28 29 29 29 28
41 39 20 23 26 25 28 25 22 24 21 20 12 8 3 5 7 9 11 12 13 12 8 9 10 11 13 23 25 26 30 26 28 29 28 31 28 28 29 25 21 24 25 28
33 34 29 20 28 27 25 24 24 28 24 15 18 14 17 10 10 12 13 15 15 12 13 11 12 11 10 13 16 33 32 29 29 29 27 26 26 24 21 23 25 26 28 30
29 34 32 27 26 28 27 26 26 27 24 27 21 22 20 18 10 12 11 12 13 15 14 15 13 18 20 20 18 18 21 23 24 25 24 25 25 24 24 26 30 30 31 32
30 25 36 27 31 27 23 27 30 27 27 25 26 26 22 21 17 15 14 14 18 15 20 19 16 21 29 24 20 22 25 27 28 27 28 27 27 29 28 31 32 33 34 34
28 28 27 30 29 26 32 32 23 23 26 25 26 23 21 21 18 17 16 17 17 20 21 21 22 29 33 29 26 30 31 32 32 30 29 30 30 34 35 33 31 32 32 33
21 25 33 24 26 23 27 27 24 24 25 22 23 21 20 21 20 19 19 16 19 26 27 24 29 30 32 34 35 27 27 29 31 32 35 33 30 28 30 31 31 30 30 31
23 20 27 24 26 23 28 19 22 24 27 23 25 23 20 20 26 21 21 19 26 30 27 25 27 31 34 31 25 22 21 21 21 22 24 26 28 28 27 26 27 29 30 30
25 20 28 19 21 14 23 23 16 22 26 21 19 19 18 21 19 14 15 20 22 22 20 23 24 25 24 22 20 18 18 19 21 23 23 24 25 25 26 27 28 28 28 29
26 28 31 28 17 17 19 27 25 26 21 14 17 17 21 18 18 18 21 20 19 20 22 24 24 24 22 22 22 22 22 22 23 24 25 26 26 26 26 27 28 30 29 27
27 20 27 27 24 19 11 20 30 29 25 25 14 15 16 18 18 21 21 23 20 20 23 24 26 26 26 26 26 25 24 24 26 26 26 26 27 28 28 29 30 29 26 26
30 31 24 20 26 24 22 26 19 21 20 19 15 19 16 21 22 20 21 23 23 21 22 25 26 28 29 30 29 28 27 27 27 27 27 28 28 29 30 30 27 27 26 26
25 20 30 15 31 14 11 20 22 21 23 26 25 22 18 23 23 21 21 23 26 24 24 27 28 31 32 32 31 30 28 28 29 29 29 30 30 30 32 29 28 26 25 26
33 19 15 22 21 17 16 17 13 18 22 25 23 21 21 26 27 25 24 24 26 28 28 29 30 33 35 35 34 31 30 30 31 31 31 31 32 32 31 28 27 25 26 28
21 20 21 21 19 15 16 18 22 32 33 25 30 28 21 26 26 24 24 25 28 30 30 31 34 36 38 37 36 35 34 34 34 34 33 33 32 30 30 26 27 27 27 27
Wind_Direction
227 218 226 235 234 260 277 288 283 255 283 255 272 266 257 284 224 197 186 207 205 175 223 275 279 140 151 144 139 141 134 149 158 163 172 175 182 189 195 201 206 210 221 229
216 226 229 242 254 266 266 260 272 278 146 263 277 288 207 227 183 200 211 208 202 187 213 252 213 223 177 167 167 168 168 172 175 180 185 190 194 203 209 215 220 231 230 239
215 224 230 238 246 251 249 247 265 282 276 270 268 270 298 239 199 198 211 201 226 185 203 236 237 199 210 190 199 197 198 193 193 192 196 201 206 210 215 220 230 238 238 250
224 229 238 227 235 231 249 236 260 263 267 272 280 287 255 225 212 205 199 205 211 196 205 233 233 193 203 196 196 198 197 197 196 200 201 206 212 217 225 232 237 247 249 259
224 223 227 231 233 232 249 259 258 272 269 282 268 254 271 198 218 213 210 208 231 214 207 234 232 197 194 200 201 202 200 197 198 204 214 216 221 227 234 242 247 256 254 255
227 226 229 233 229 232 247 257 256 264 260 264 272 248 234 251 249 221 219 222 222 224 221 216 240 222 213 205 203 203 206 209 214 217 216 229 235 240 242 248 250 257 263 265
226 228 227 225 228 232 229 237 251 247 247 248 270 279 249 224 196 237 183 220 227 208 218 225 222 232 218 218 217 218 222 226 229 236 235 234 243 246 250 257 263 268 269 274
213 225 221 216 222 214 219 223 232 194 261 340 289 252 162 179 160 194 203 204 220 221 219 223 227 231 238 230 227 229 231 234 238 240 246 248 253 252 252 255 265 280 278 283
212 228 219 218 219 220 221 219 235 145 228 229 210 248 219 186 195 199 207 205 220 223 225 239 240 225 239 245 232 235 238 240 243 247 251 246 250 250 255 257 266 273 270 281
234 218 225 211 214 224 233 241 231 211 175 234 214 255 305 182 178 178 170 158 192 214 212 225 233 241 233 240 246 238 240 243 246 249 249 254 266 262 275 267 270 271 275 283
227 239 224 210 205 212 217 229 233 236 242 300 287 89 155 166 178 174 175 201 195 185 213 205 207 221 241 240 240 250 245 243 245 243 244 244 251 258 257 261 270 275 280 280
224 235 223 213 207 213 224 222 226 219 225 217 271 262 163 155 233 220 221 222 218 211 226 248 231 214 209 239 237 239 248 258 255 251 243 250 251 257 276 272 272 274 278 280
210 235 230 213 216 216 224 225 226 233 238 240 190 254 179 250 209 230 243 226 237 239 227 251 251 238 225 216 220 237 246 246 259 254 249 254 263 266 268 271 270 274 279 288
226 229 227 210 215 210 221 224 225 230 235 248 231 243 252 242 264 251 243 246 226 242 217 224 258 258 254 240 235 224 236 252 256 263 263 262 262 264 262 274 279 282 287 289
227 223 229 229 232 206 218 221 230 239 233 221 235 247 249 261 243 253 230 216 222 230 219 229 230 244 256 255 256 259 261 260 257 254 258 261 265 266 271 273 282 282 285 285
216 222 227 236 237 248 232 231 220 228 238 244 245 244 251 262 266 251 256 248 226 231 245 242 248 235 246 261 267 265 260 258 254 249 253 260 267 268 270 275 277 278 280 283
219 215 222 238 236 248 246 236 238 232 235 239 244 252 254 253 256 260 252 252 247 237 261 261 253 232 263 265 266 275 275 256 249 251 258 262 266 272 273 275 278 282 285 286
213 219 221 236 228 243 252 241 243 250 252 250 252 255 254 251 252 258 239 230 248 261 276 265 255 251 256 270 278 267 261 251 250 256 262 265 267 272 277 280 282 285 285 286
208 222 221 227 231 245 235 232 228 234 245 245 250 254 252 249 247 245 252 260 274 280 277 268 260 259 266 271 265 260 247 246 248 253 262 270 276 278 281 283 284 285 286 286
217 237 221 213 225 232 227 219 231 241 255 248 250 253 249 249 239 249 268 273 278 277 273 270 268 265 259 256 251 242 244 251 260 269 275 278 281 282 283 284 287 287 287 286
223 228 226 225 235 239 232 231 235 243 243 257 249 250 244 241 256 258 274 278 284 276 274 275 267 259 253 248 247 251 259 267 275 282 284 283 282 283 285 287 288 287 285 284
215 217 226 228 236 243 222 228 224 235 235 241 256 253 252 252 252 273 275 276 284 283 275 273 264 254 249 247 251 258 266 273 278 280 279 278 279 281 283 285 286 282 280 282
221 219 228 218 225 244 241 229 222 232 243 249 248 231 248 251 259 280 275 273 279 283 274 269 261 253 247 249 254 261 268 273 276 276 277 277 278 280 283 285 279 277 280 281
230 233 240 255 231 231 229 234 238 242 238 243 249 256 256 259 273 275 274 275 277 283 275 269 260 250 247 249 255 261 267 270 272 273 273 274 277 281 283 280 278 279 281 281
221 233 246 263 267 244 219 226 240 249 258 261 261 256 265 269 275 276 275 278 276 279 277 268 259 250 248 250 255 258 262 264 266 269 271 274 279 280 278 277 275 278 280 285
222 236 240 245 255 253 262 254 243 249 261 254 259 263 269 268 277 273 279 281 277 273 273 265 257 251 249 251 254 255 258 260 264 265 269 274 277 277 275 272 274 278 281 285